G8LNQ Weather Reports


time (UTC)temp
C
wind
direction
speed
KPH
gust
KPH
rain 1hr
cm
rain 24hr
cm
rain mn
cm
humidity
%
barometer
mb
20260508122047 15 229 4.8 17.7 0.00 0.00 0.00 60 1016.5
20260508121506 15 253 3.2 14.5 0.00 0.00 0.00 59 1016.5
20260508121044 15 252 4.8 14.5 0.00 0.00 0.00 56 1016.5
20260508120508 15 261 1.6 14.5 0.00 0.00 0.00 56 1016.5
20260508120046 15 267 3.2 14.5 0.00 0.00 0.00 57 1016.5
20260508115515 15 244 1.6 12.9 0.00 0.00 0.00 60 1016.4
20260508115048 15 266 1.6 8.0 0.00 0.00 0.00 61 1016.3
20260508114530 14 266 1.6 8.0 0.00 0.00 0.00 61 1016.4
20260508114011 14 266 3.2 8.0 0.00 0.00 0.00 60 1016.4
20260508113549 14 266 1.6 4.8 0.00 0.00 0.00 62 1016.4
20260508113027 14 266 0.0 9.7 0.00 0.00 0.00 63 1016.3
20260508112552 14 266 3.2 9.7 0.00 0.00 0.00 61 1016.3
20260508112036 14 266 0.0 12.9 0.00 0.00 0.00 62 1016.3
20260508111517 14 266 4.8 12.9 0.00 0.00 0.00 59 1016.3
20260508111057 14 266 1.6 8.0 0.00 0.00 0.00 60 1016.3
20260508110510 14 266 1.6 11.3 0.00 0.00 0.00 61 1016.3
20260508110047 13 266 4.8 11.3 0.00 0.00 0.00 61 1016.4
20260508105512 13 266 4.8 11.3 0.00 0.00 0.00 60 1016.4
20260508105034 14 232 4.8 11.3 0.00 0.00 0.00 60 1016.4
20260508104514 14 237 3.2 9.7 0.00 0.00 0.00 60 1016.4
20260508104038 14 237 4.8 11.3 0.00 0.00 0.00 59 1016.4
20260508103517 15 236 3.2 11.3 0.00 0.00 0.00 58 1016.4
20260508103038 15 177 0.0 8.0 0.00 0.00 0.00 62 1016.4
20260508102513 15 171 1.6 6.4 0.00 0.00 0.00 61 1016.4
20260508102049 15 171 1.6 8.0 0.00 0.00 0.00 61 1016.4
20260508101523 15 171 1.6 4.8 0.00 0.00 0.00 61 1016.4
20260508101049 15 119 0.0 14.5 0.00 0.00 0.00 60 1016.4
20260508100508 15 119 4.8 14.5 0.00 0.00 0.00 62 1016.4
20260508100047 15 104 3.2 9.7 0.00 0.00 0.00 64 1016.4
20260508095507 15 78 3.2 9.7 0.00 0.00 0.00 64 1016.4
20260508095050 15 229 1.6 9.7 0.00 0.00 0.00 62 1016.4
20260508094508 15 131 1.6 8.0 0.00 0.00 0.00 63 1016.4
20260508094048 15 131 1.6 9.7 0.00 0.00 0.00 64 1016.4
20260508093530 15 212 3.2 9.7 0.00 0.00 0.00 63 1016.3
20260508093024 15 170 1.6 8.0 0.00 0.00 0.00 64 1016.3
20260508092547 15 142 3.2 8.0 0.00 0.00 0.00 66 1016.3
20260508092026 14 142 3.2 9.7 0.00 0.00 0.00 65 1016.3
20260508091504 15 142 4.8 9.7 0.00 0.00 0.00 68 1016.4
20260508091044 15 142 3.2 8.0 0.00 0.00 0.00 68 1016.2
20260508090523 14 142 1.6 8.0 0.00 0.00 0.00 67 1016.2
20260508090111 14 142 3.2 8.0 0.00 0.00 0.00 67 1016.3
20260508085540 14 142 1.6 6.4 0.00 0.00 0.00 69 1016.3
20260508085018 14 142 1.6 6.4 0.00 0.00 0.00 70 1016.3
20260508084550 14 142 1.6 6.4 0.00 0.00 0.00 70 1016.3
20260508084035 13 142 0.0 8.0 0.00 0.00 0.00 70 1016.4
20260508083514 13 142 1.6 8.0 0.00 0.00 0.00 69 1016.4
20260508083047 13 142 3.2 8.0 0.00 0.00 0.00 69 1016.3
20260508082524 13 142 1.6 8.0 0.00 0.00 0.00 70 1016.4
20260508082046 13 239 1.6 4.8 0.00 0.00 0.00 70 1016.4
20260508081520 13 240 0.0 6.4 0.00 0.00 0.00 72 1016.4
20260508081044 13 240 3.2 6.4 0.00 0.00 0.00 72 1016.3
20260508080523 13 240 1.6 6.4 0.00 0.00 0.00 71 1016.2
20260508080054 12 240 1.6 4.8 0.00 0.00 0.00 72 1016.2
20260508075534 12 241 0.0 6.4 0.00 0.00 0.00 73 1016.3
20260508075016 12 241 1.6 6.4 0.00 0.00 0.00 73 1016.2
20260508074543 12 242 1.6 4.8 0.00 0.00 0.00 74 1016.2
20260508074020 11 242 0.0 4.8 0.00 0.00 0.00 75 1016.2
20260508073518 11 242 0.0 4.8 0.00 0.00 0.00 77 1016.2
20260508073053 11 242 1.6 8.0 0.00 0.00 0.00 77 1016.2
20260508072527 10 242 3.2 6.4 0.00 0.00 0.00 77 1016.1
20260508072050 10 243 1.6 6.4 0.00 0.00 0.00 78 1016.1
20260508071529 10 243 3.2 8.0 0.00 0.00 0.00 78 1016.0
20260508071052 10 242 1.6 8.0 0.00 0.00 0.00 79 1016.0
20260508070537 10 242 1.6 4.8 0.00 0.00 0.00 79 1015.8
20260508070012 10 242 0.0 3.2 0.00 0.00 0.00 81 1015.8
20260508065528 10 242 0.0 3.2 0.00 0.00 0.00 83 1015.9
20260508065004 10 242 0.0 6.4 0.00 0.00 0.00 84 1015.8
20260508064544 9 242 1.6 6.4 0.00 0.00 0.00 85 1015.8
20260508064100 9 242 1.6 4.8 0.00 0.00 0.00 87 1015.8
20260508064002 9 242 1.6 4.8 0.00 0.00 0.00 87 1015.8
20260508063539 9 243 1.6 4.8 0.00 0.00 0.00 88 1015.7
20260508063058 8 243 1.6 3.2 0.00 0.00 0.00 88 1015.7
20260508062538 8 243 0.0 4.8 0.00 0.00 0.00 89 1015.7
20260508062058 8 244 1.6 4.8 0.00 0.00 0.00 89 1015.6
20260508061540 7 244 3.2 4.8 0.00 0.00 0.00 89 1015.6
20260508061058 7 244 0.0 0.0 0.00 0.00 0.00 90 1015.5
20260508060541 7 244 0.0 0.0 0.00 0.00 0.00 91 1015.4
20260508060100 6 244 0.0 0.0 0.00 0.00 0.00 90 1015.5
20260508060003 6 244 0.0 0.0 0.00 0.00 0.00 89 1015.4
20260508055544 6 244 0.0 0.0 0.00 0.00 0.00 89 1015.3
20260508055059 6 244 0.0 0.0 0.00 0.00 0.00 89 1015.3
20260508055004 6 244 0.0 0.0 0.00 0.00 0.00 90 1015.2
20260508054603 6 244 0.0 0.0 0.00 0.00 0.00 89 1015.2
20260508054059 6 244 0.0 0.0 0.00 0.00 0.00 89 1015.3
20260508054002 6 244 0.0 0.0 0.00 0.00 0.00 89 1015.3
20260508053543 6 244 0.0 0.0 0.00 0.00 0.00 89 1015.2
20260508053101 6 244 0.0 0.0 0.00 0.00 0.00 89 1015.1
20260508053002 6 244 0.0 0.0 0.00 0.00 0.00 89 1015.1
20260508052546 6 244 0.0 0.0 0.00 0.00 0.00 89 1015.1
20260508052004 6 244 0.0 0.0 0.00 0.00 0.00 89 1015.1
20260508051542 6 244 0.0 0.0 0.00 0.00 0.00 89 1015.1
20260508051100 6 244 0.0 0.0 0.00 0.00 0.00 89 1015.0
20260508051002 6 244 0.0 0.0 0.00 0.00 0.00 89 1015.1
20260508050542 6 244 0.0 0.0 0.00 0.00 0.00 89 1015.0
20260508050021 6 244 0.0 0.0 0.00 0.00 0.00 88 1014.9
20260508045539 6 244 0.0 0.0 0.00 0.00 0.00 88 1014.9
20260508045017 6 244 0.0 0.0 0.00 0.00 0.00 88 1014.9
20260508044553 7 244 0.0 0.0 0.00 0.00 0.00 88 1014.9
20260508044005 7 244 0.0 0.0 0.00 0.00 0.00 88 1014.9
20260508043539 7 244 0.0 0.0 0.00 0.00 0.00 88 1015.0
20260508043009 7 244 0.0 0.0 0.00 0.00 0.00 88 1015.0
20260508042550 7 244 0.0 0.0 0.00 0.00 0.00 88 1015.0
20260508042027 7 244 0.0 0.0 0.00 0.00 0.00 87 1014.9
20260508041602 7 244 0.0 0.0 0.00 0.00 0.00 87 1014.9
20260508041501 7 244 0.0 0.0 0.00 0.00 0.00 87 1014.9
20260508041038 7 244 0.0 0.0 0.00 0.00 0.00 87 1014.8
20260508040517 7 244 0.0 0.0 0.00 0.00 0.00 86 1014.9
20260508040053 7 244 0.0 0.0 0.00 0.00 0.00 86 1014.8
20260508035525 7 244 0.0 0.0 0.00 0.00 0.00 86 1014.8
20260508035059 7 244 0.0 0.0 0.00 0.00 0.00 85 1014.8
20260508035007 7 244 0.0 0.0 0.00 0.00 0.00 85 1014.7
20260508034544 7 244 0.0 4.8 0.00 0.00 0.00 84 1014.8
20260508034003 7 244 1.6 4.8 0.00 0.00 0.00 84 1014.7
20260508033525 8 244 0.0 1.6 0.00 0.00 0.00 83 1014.8
20260508033010 8 244 0.0 4.8 0.00 0.00 0.00 83 1014.7
20260508032527 8 244 0.0 6.4 0.00 0.00 0.00 83 1014.7
20260508032004 8 244 3.2 6.4 0.00 0.00 0.00 82 1014.6
20260508031553 8 244 3.2 8.0 0.00 0.00 0.00 82 1014.7
20260508031015 8 244 3.2 8.0 0.00 0.00 0.00 82 1014.8
20260508030553 8 244 1.6 6.4 0.00 0.00 0.00 81 1014.8
20260508030016 8 244 0.0 8.0 0.00 0.00 0.00 81 1014.8
20260508025547 8 232 4.8 8.0 0.00 0.00 0.00 81 1014.7
20260508025027 8 244 1.6 6.4 0.00 0.00 0.00 81 1014.7
20260508024549 8 244 3.2 8.0 0.00 0.00 0.00 81 1014.7
20260508024025 8 244 3.2 8.0 0.00 0.00 0.00 82 1014.6
20260508023556 8 244 1.6 6.4 0.00 0.00 0.00 82 1014.6
20260508023040 8 244 3.2 6.4 0.00 0.00 0.00 82 1014.7
20260508022517 8 244 3.2 9.7 0.00 0.00 0.00 82 1014.7
20260508022048 8 244 3.2 8.0 0.00 0.00 0.00 82 1014.7
20260508021533 8 244 4.8 8.0 0.00 0.00 0.00 82 1014.7
20260508021009 8 244 0.0 6.4 0.00 0.00 0.00 81 1014.6
20260508020533 8 244 1.6 8.0 0.00 0.00 0.00 81 1014.6
20260508020003 8 244 1.6 12.9 0.00 0.00 0.00 80 1014.7
20260508015543 8 244 4.8 9.7 0.00 0.00 0.00 81 1014.7
20260508015021 8 242 4.8 11.3 0.00 0.00 0.00 81 1014.7
20260508014602 8 242 4.8 12.9 0.00 0.00 0.00 82 1014.6
20260508014503 8 238 3.2 12.9 0.00 0.00 0.00 82 1014.6
20260508014037 8 244 3.2 9.7 0.00 0.00 0.00 82 1014.6
20260508013511 8 244 0.0 8.0 0.00 0.00 0.00 82 1014.6
20260508013051 8 244 0.0 11.3 0.00 0.00 0.00 82 1014.7
20260508012529 8 245 6.4 11.3 0.00 0.00 0.00 83 1014.6
20260508012005 8 227 0.0 4.8 0.00 0.00 0.00 84 1014.7
20260508011527 8 227 0.0 6.4 0.00 0.00 0.00 84 1014.7
20260508011008 7 227 3.2 6.4 0.00 0.00 0.00 85 1014.7
20260508010531 7 227 0.0 0.0 0.00 0.00 0.00 86 1014.7
20260508010013 7 227 0.0 0.0 0.00 0.00 0.00 86 1014.8
20260508005530 7 227 0.0 0.0 0.00 0.00 0.00 85 1014.8
20260508005012 7 227 0.0 0.0 0.00 0.00 0.00 85 1014.8
20260508004525 7 227 0.0 0.0 0.00 0.00 0.00 85 1014.9
20260508004047 7 227 0.0 0.0 0.00 0.00 0.00 85 1014.9
20260508003526 8 227 0.0 0.0 0.00 0.00 0.00 85 1014.8
20260508003058 8 227 0.0 0.0 0.00 0.00 0.00 85 1014.9
20260508002525 8 227 0.0 0.0 0.00 0.00 0.00 84 1014.9
20260508002059 8 227 0.0 0.0 0.00 0.00 0.00 84 1014.9
20260508002004 8 227 0.0 0.0 0.00 0.00 0.00 84 1014.8
20260508001532 8 227 0.0 0.0 0.00 0.00 0.00 84 1014.9
20260508001005 8 227 0.0 0.0 0.00 0.00 0.00 84 1014.9
20260508000526 8 227 0.0 0.0 0.00 0.00 0.00 84 1014.9
20260508000005 8 227 0.0 0.0 0.00 0.00 0.00 83 1015.0
20260507235527 8 227 0.0 0.0 0.00 0.00 0.00 83 1014.9
20260507235005 8 227 0.0 0.0 0.00 0.00 0.00 83 1014.9
20260507234546 8 227 0.0 0.0 0.00 0.00 0.00 83 1014.9
20260507234024 8 227 0.0 0.0 0.00 0.00 0.00 82 1014.8
20260507233539 8 227 0.0 0.0 0.00 0.00 0.00 82 1014.8
20260507233015 8 219 0.0 0.0 0.00 0.00 0.00 82 1014.8
20260507232540 8 219 0.0 0.0 0.00 0.00 0.00 82 1014.8
20260507232054 8 219 0.0 0.0 0.00 0.00 0.00 81 1014.8
20260507231521 8 219 0.0 1.6 0.00 0.00 0.00 81 1014.8
20260507231056 8 219 0.0 4.8 0.00 0.00 0.00 81 1014.8
20260507230541 9 219 0.0 3.2 0.00 0.00 0.00 81 1014.7
20260507230020 9 219 0.0 3.2 0.00 0.00 0.00 81 1014.8
20260507225538 9 219 0.0 3.2 0.00 0.00 0.00 81 1014.8
20260507225057 9 219 0.0 3.2 0.00 0.00 0.00 80 1014.8
20260507224553 9 220 0.0 9.7 0.00 0.00 0.00 80 1014.8
20260507224014 8 220 1.6 9.7 0.00 0.00 0.00 81 1014.8
20260507223537 8 89 0.0 4.8 0.00 0.00 0.00 81 1014.8
20260507223056 9 89 0.0 0.0 0.00 0.00 0.00 81 1014.8
20260507222539 9 89 0.0 0.0 0.00 0.00 0.00 81 1014.7
20260507222054 9 89 0.0 0.0 0.00 0.00 0.00 81 1014.7
20260507221532 9 89 0.0 0.0 0.00 0.00 0.00 80 1014.7
20260507221059 9 89 0.0 1.6 0.00 0.00 0.00 80 1014.7
20260507220519 9 89 0.0 4.8 0.00 0.00 0.00 80 1014.7
20260507220040 9 89 0.0 8.0 0.00 0.00 0.00 80 1014.8
20260507215518 9 89 0.0 3.2 0.00 0.00 0.00 80 1014.8
20260507215043 9 89 0.0 1.6 0.00 0.00 0.00 80 1014.8
20260507214533 9 89 0.0 3.2 0.00 0.00 0.00 79 1014.8
20260507214102 9 89 0.0 3.2 0.00 0.00 0.00 79 1014.9
20260507213520 9 89 0.0 4.8 0.00 0.00 0.00 79 1014.9
20260507213048 9 89 0.0 4.8 0.00 0.00 0.00 79 1014.9
20260507212518 9 89 1.6 4.8 0.00 0.00 0.00 79 1014.9
20260507212058 9 89 0.0 3.2 0.00 0.00 0.00 79 1014.9
20260507212002 9 89 0.0 0.0 0.00 0.00 0.00 79 1014.9
20260507211522 9 89 0.0 0.0 0.00 0.00 0.00 79 1014.8
20260507211043 9 89 0.0 0.0 0.00 0.00 0.00 79 1014.9
20260507210522 9 89 0.0 0.0 0.00 0.00 0.00 79 1014.8
20260507210110 9 89 0.0 0.0 0.00 0.00 0.00 78 1014.8
20260507205526 10 89 0.0 0.0 0.00 0.00 0.00 78 1014.8
20260507205101 10 89 0.0 1.6 0.00 0.00 0.00 78 1014.7
20260507204520 10 89 0.0 1.6 0.00 0.00 0.00 78 1014.6
20260507204059 10 89 0.0 0.0 0.00 0.00 0.00 78 1014.6
20260507203516 10 89 0.0 8.0 0.00 0.00 0.00 78 1014.6
20260507203038 10 89 0.0 8.0 0.00 0.00 0.00 78 1014.6
20260507202518 10 89 0.0 3.2 0.00 0.00 0.00 78 1014.5
20260507202040 10 89 0.0 3.2 0.00 0.00 0.00 78 1014.4
20260507201519 10 89 0.0 1.6 0.00 0.00 0.00 77 1014.4
20260507201040 10 89 0.0 3.2 0.00 0.00 0.00 77 1014.3
20260507200507 10 89 1.6 4.8 0.00 0.00 0.00 77 1014.4
20260507200100 10 89 0.0 4.8 0.00 0.00 0.00 77 1014.4
20260507195510 10 89 0.0 3.2 0.00 0.00 0.00 77 1014.3
20260507195050 10 89 0.0 1.6 0.00 0.00 0.00 77 1014.3
20260507194524 10 89 0.0 1.6 0.00 0.00 0.00 76 1014.2
20260507194045 10 89 0.0 3.2 0.00 0.00 0.00 76 1014.2
20260507193517 10 89 0.0 3.2 0.00 0.00 0.00 76 1014.2
20260507193108 10 89 0.0 4.8 0.00 0.00 0.00 76 1014.2
20260507192507 10 89 0.0 4.8 0.00 0.00 0.00 76 1014.2
20260507192046 10 89 0.0 3.2 0.00 0.00 0.00 76 1014.2
20260507191530 10 89 0.0 3.2 0.00 0.00 0.00 76 1014.2
20260507191005 10 89 0.0 3.2 0.00 0.00 0.00 77 1014.2
20260507190518 10 89 0.0 3.2 0.00 0.00 0.00 77 1014.1
20260507190041 10 89 0.0 0.0 0.00 0.00 0.00 77 1014.1
20260507185519 10 89 0.0 0.0 0.00 0.00 0.00 76 1014.1
20260507185041 10 89 0.0 4.8 0.00 0.00 0.00 77 1014.0
20260507184504 10 89 1.6 4.8 0.00 0.00 0.00 76 1014.0
20260507184046 10 89 0.0 4.8 0.00 0.00 0.00 76 1014.1
20260507183510 10 89 0.0 0.0 0.00 0.00 0.00 76 1013.9
20260507183036 10 89 0.0 4.8 0.00 0.00 0.00 76 1014.0
20260507182505 10 89 0.0 4.8 0.00 0.00 0.00 76 1014.0
20260507182037 11 89 1.6 3.2 0.00 0.00 0.00 76 1014.0
20260507181558 11 89 0.0 8.0 0.00 0.00 0.00 76 1014.0
20260507181036 11 89 0.0 8.0 0.00 0.00 0.00 76 1014.1
20260507180514 11 89 0.0 4.8 0.00 0.00 0.00 76 1014.0
20260507180050 11 89 1.6 4.8 0.00 0.00 0.00 75 1014.0
20260507175516 11 89 1.6 8.0 0.00 0.00 0.00 75 1014.0
20260507175054 11 89 1.6 11.3 0.00 0.00 0.00 75 1014.0
20260507174519 11 89 1.6 11.3 0.00 0.00 0.00 76 1014.0
20260507174057 11 89 3.2 9.7 0.00 0.00 0.00 76 1014.0
20260507173517 11 89 1.6 8.0 0.00 0.00 0.00 77 1014.1
20260507173040 11 89 0.0 9.7 0.00 0.00 0.00 77 1014.1
20260507172520 11 89 1.6 9.7 0.00 0.00 0.00 76 1014.1
20260507172057 11 88 3.2 8.0 0.00 0.00 0.00 76 1014.1
20260507171521 11 88 1.6 11.3 0.00 0.00 0.00 76 1014.1
20260507171058 11 88 3.2 11.3 0.00 0.00 0.00 76 1014.1
20260507170519 11 88 3.2 8.0 0.00 0.00 0.00 76 1014.2
20260507170047 11 88 1.6 9.7 0.00 0.00 0.00 76 1014.1
20260507165523 11 88 3.2 9.7 0.00 0.00 0.00 76 1014.2
20260507165045 11 88 1.6 12.9 0.00 0.00 0.00 76 1014.3
20260507164525 11 86 4.8 12.9 0.00 0.00 0.00 76 1014.4
20260507164048 11 109 3.2 6.4 0.00 0.00 0.00 77 1014.4
20260507163512 11 109 3.2 8.0 0.00 0.00 0.00 76 1014.3
20260507163047 11 109 3.2 11.3 0.00 0.00 0.00 76 1014.4
20260507162508 11 123 4.8 12.9 0.00 0.00 0.00 77 1014.3
20260507162047 11 108 3.2 12.9 0.00 0.00 0.00 76 1014.4
20260507161510 11 100 3.2 12.9 0.00 0.00 0.00 76 1014.2
20260507161029 11 105 6.4 11.3 0.00 0.00 0.00 76 1014.2
20260507160508 11 122 3.2 11.3 0.00 0.00 0.00 76 1014.2
20260507160054 11 105 3.2 11.3 0.00 0.00 0.00 76 1014.2
20260507155512 11 111 3.2 11.3 0.00 0.00 0.00 77 1014.2
20260507155027 11 84 4.8 9.7 0.00 0.00 0.00 77 1014.3
20260507154549 10 83 1.6 9.7 0.00 0.00 0.00 78 1014.3
20260507154027 10 83 3.2 11.3 0.00 0.00 0.00 77 1014.4
20260507153545 10 83 4.8 11.3 0.00 0.00 0.00 78 1014.4
20260507153025 10 87 3.2 9.7 0.00 0.00 0.00 78 1014.4
20260507152549 10 87 3.2 9.7 0.00 0.00 0.00 78 1014.5
20260507152019 10 87 3.2 11.3 0.00 0.00 0.00 78 1014.5
20260507151543 10 86 6.4 11.3 0.00 0.00 0.00 77 1014.6
20260507151019 10 89 3.2 9.7 0.00 0.00 0.00 77 1014.6
20260507150550 10 87 4.8 11.3 0.00 0.00 0.00 78 1014.6
20260507150021 10 88 4.8 11.3 0.00 0.00 0.00 77 1014.7
20260507145542 10 141 4.8 8.0 0.00 0.00 0.00 77 1014.7
20260507145019 10 141 4.8 8.0 0.00 0.00 0.00 77 1014.7
20260507144550 10 141 3.2 8.0 0.00 0.00 0.00 78 1014.8
20260507144059 10 141 1.6 6.4 0.00 0.00 0.00 78 1014.8
20260507144001 10 141 1.6 6.4 0.00 0.00 0.00 78 1014.8
20260507143540 10 141 1.6 6.4 0.00 0.00 0.00 78 1014.9
20260507143019 10 141 3.2 8.0 0.00 0.00 0.00 77 1015.0
20260507142535 10 141 3.2 8.0 0.00 0.00 0.00 77 1015.0
20260507142055 10 141 3.2 6.4 0.00 0.00 0.00 77 1015.0
20260507141535 10 141 3.2 6.4 0.00 0.00 0.00 77 1015.1
20260507141017 10 141 1.6 6.4 0.00 0.00 0.00 76 1015.1
20260507140535 10 141 3.2 6.4 0.00 0.00 0.00 76 1015.1
20260507140013 10 141 1.6 6.4 0.00 0.00 0.00 76 1015.1
20260507135535 10 141 0.0 6.4 0.00 0.00 0.00 75 1015.2
20260507135015 10 140 1.6 6.4 0.00 0.00 0.00 75 1015.2
20260507134533 10 142 0.0 4.8 0.00 0.00 0.00 74 1015.2
20260507134013 10 141 0.0 6.4 0.00 0.00 0.00 74 1015.2
20260507133551 10 141 1.6 6.4 0.00 0.00 0.00 74 1015.2
20260507133027 10 141 1.6 8.0 0.00 0.00 0.00 74 1015.2
20260507132549 10 141 1.6 8.0 0.00 0.00 0.00 75 1015.2
20260507132026 10 109 1.6 6.4 0.00 0.00 0.00 76 1015.3
20260507131550 10 109 0.0 4.8 0.00 0.00 0.00 75 1015.3
20260507131015 10 109 0.0 6.4 0.00 0.00 0.00 75 1015.4
20260507130551 10 109 1.6 6.4 0.00 0.00 0.00 76 1015.4
20260507130027 10 109 3.2 6.4 0.00 0.00 0.00 75 1015.4
20260507125553 10 115 1.6 8.0 0.00 0.00 0.00 75 1015.4
20260507125014 10 146 3.2 8.0 0.00 0.00 0.00 75 1015.2
20260507124537 10 146 3.2 6.4 0.00 0.00 0.00 75 1015.3
20260507124016 10 146 1.6 4.8 0.00 0.00 0.00 74 1015.4
20260507123539 10 146 1.6 8.0 0.00 0.00 0.00 75 1015.3
20260507123026 10 146 3.2 8.0 0.00 0.00 0.00 75 1015.3
20260507122540 10 146 3.2 6.4 0.00 0.00 0.00 75 1015.2